User: anonymous   Login
Location: Drayton Valley
(53.2170°N, 114.9830°W)
Time: 17:14:10
(UTC-07:00)
Language:

MOZ.5/SAFIR/RUBIN 5/SL-8 - Orbit

View from above orbital plane
View from above orbital plane
View from above satellite
View from above satellite

Ground track
Ground track

The orbit data is extracted from the following two-line orbital elements,

1 28898U 05043G   17326.48029578  .00000143  00000-0  38857-4 0  9992
2 28898  97.9489 109.5521 0020818  53.3231 306.9879 14.60225433642938
Epoch (UTC): 22 November 2017 11:31:37
Eccentricity: 0.0020818
inclination: 97.9489°
perigee height: 678 km
apogee height: 707 km
right ascension of ascending node: 109.5521°
argument of perigee: 53.3231°
revolutions per day: 14.60225433
mean anomaly at epoch: 306.9879°
orbit number at epoch: 64293

The dashed part of the orbit path shows where the satellite is in the earth's shadow,  

DLR